Regional Weather Roundup
Issued by NWS

Home | Current Version | Previous Version | Text Only | Print | Product List | Glossary Off
Versions: 1 2 3 4 5 6 7 8 9 10 11 12 13 14 15 16 17 18 19 20 21 22 23 24 25 26 27 28 29 30 31 32 33 34 35 36 37 38 39 40 41 42 43 44 45 46 47 48 49 50

000
ASUS43 KFSD 272202
RWRSD

WEATHER ROUNDUP FOR SOUTH DAKOTA
NATIONAL WEATHER SERVICE SIOUX FALLS SD
500 PM CDT FRI MAY 27 2016

NOTE: "FAIR" INDICATES FEW OR NO CLOUDS BELOW 12,000 FEET WITH NO
SIGNIFICANT WEATHER AND/OR OBSTRUCTIONS TO VISIBILITY.


SDZ001>005-009-010-012>017-272300-
NORTHWEST AND NORTH CENTRAL SOUTH DAKOTA

CITY           SKY/WX    TMP DP  RH WIND       PRES   REMARKS
BUFFALO          N/A     68  45  43 VRB5      29.76F
FAITH            N/A     63  46  54 S7        29.82S
MOBRIDGE       PTSUNNY   72  47  40 N3        29.77S
$$

SDZ012>016-024>037-041>051-057-063-072>074-272300-
SOUTHWEST AND SOUTH CENTRAL SOUTH DAKOTA

CITY           SKY/WX    TMP DP  RH WIND       PRES   REMARKS
RAPID CTY ARPT CLOUDY    60  49  66 S14       29.85R
PIERRE         PTSUNNY   70  52  52 NE5       29.77F
CUSTER         CLOUDY    52  42  69 E9G22     29.90S
ELLSWORTH AFB  CLOUDY    65  52  61 SE18      29.83F
PHILIP         CLOUDY    65  48  54 NE5       29.81S
PINE RIDGE     CLOUDY    62  44  51 NE3       29.85F
WINNER         FAIR      69  52  54 NE8       29.78F
$$

SDZ004>011-016>023-039-040-272300-
NORTHEAST SOUTH DAKOTA

CITY           SKY/WX    TMP DP  RH WIND       PRES   REMARKS
ABERDEEN       LGT RAIN  64  58  80 S7        29.78F
WATERTOWN      CLOUDY    66  58  75 W7        29.77F
SISSETON         N/A     70  54  56 SW8       29.74F
$$

SDZ017-020-022-023-036>040-048>070-272300-
SOUTHEAST SOUTH DAKOTA

CITY           SKY/WX    TMP DP  RH WIND       PRES   REMARKS
SIOUX FALLS    PTSUNNY   75  58  55 MISG      29.72F
HURON          PTSUNNY   71  57  61 MISG      29.75F
MITCHELL       MOSUNNY   72  59  63 NE6       29.75F
YANKTON        PTSUNNY   73  59  60 NW6       29.70F
$$

ABBREVIATIONS USED IN REMARKS
   TC - TEMPERATURE IN CELSIUS
  WCI - WIND CHILL INDEX
   HX - HEAT INDEX
  VSB - VISIBILITY





USA.gov is the U.S. government's official web portal to all federal, state and local government web resources and services.